Location: Winthrop
(48.4780°N, 120.1850°W)
Time: 06:39:14
(UTC-07:00)

ARIANE 6 FM1 Upper Stage - Visible Passes

Search period start: 03 October 2024 00:00
Search period end: 13 October 2024 00:00
Orbit: 564 x 594 km, 62.0° (Epoch: 03 October)

Date Brightness Start Highest point End Pass type
(mag) Time Alt. Az. Time Alt. Az. Time Alt. Az.
03 Oct 5.3 20:19:01 10° NW 20:21:31 15° N 20:24:01 10° NNE visible
03 Oct 5.5 21:59:44 10° NNW 22:01:06 14° N 22:01:06 14° N visible
04 Oct 5.3 20:24:06 10° NW 20:26:23 14° N 20:28:41 10° NNE visible
04 Oct 5.5 22:04:13 10° NNW 22:05:18 14° NNW 22:05:18 14° NNW visible
05 Oct 5.2 20:29:00 10° NNW 20:31:14 14° N 20:33:13 11° NNE visible
05 Oct 5.6 22:08:38 10° NNW 22:09:30 14° NNW 22:09:30 14° NNW visible
06 Oct 5.0 18:52:13 10° WNW 18:55:09 18° NNW 18:58:06 10° NNE visible
06 Oct 5.1 20:33:44 10° NNW 20:36:04 14° N 20:37:25 13° NNE visible
06 Oct 5.7 22:13:01 10° NNW 22:13:41 13° NNW 22:13:41 13° NNW visible
07 Oct 5.1 18:57:18 10° NW 18:59:56 15° NNW 19:02:34 10° NNE visible
07 Oct 5.0 20:38:18 10° NNW 20:40:53 15° NNE 20:41:35 15° NNE visible
07 Oct 5.8 22:17:22 10° NNW 22:17:52 13° NNW 22:17:52 13° NNW visible
08 Oct 5.1 19:02:19 10° NW 19:04:42 14° N 19:07:04 10° NNE visible
08 Oct 4.8 20:42:44 10° NNW 20:45:38 17° NNE 20:45:45 17° NNE visible
08 Oct 5.9 22:21:43 10° NW 22:22:02 12° NW 22:22:02 12° NW visible
09 Oct 5.1 19:07:14 10° NNW 19:09:28 14° N 19:11:43 10° NNE visible
09 Oct 4.7 20:47:06 10° NNW 20:49:55 20° NNE 20:49:55 20° NNE visible
09 Oct 6.0 22:26:03 10° NW 22:26:11 11° NW 22:26:11 11° NW visible
10 Oct 5.1 19:11:58 10° NNW 19:14:14 14° N 19:16:29 10° NE visible
10 Oct 4.6 20:51:24 10° NNW 20:54:04 22° N 20:54:04 22° N visible
11 Oct 5.0 19:16:31 10° NNW 19:18:56 14° N 19:21:23 10° NE visible
11 Oct 4.5 20:55:41 10° NNW 20:58:15 25° N 20:58:15 25° N visible
12 Oct 4.8 19:20:56 10° NNW 19:23:38 16° NNE 19:26:08 11° NE visible
12 Oct 4.4 20:59:56 10° NW 21:02:25 28° N 21:02:25 28° N visible
